Location: Newark
(48.3983°N, 16.0611°E)
Time: 11:23:28
(UTC+00:00)

ISS - Pass Details

Date: 26 January 2020
Orbit: 415 x 423 km, 51.6° (Epoch: 27 February)

Event Time Altitude Azimuth Distance (km) Brightness Sun altitude
Rises 17:21:53 0° 257° (WSW) 2,377 1.9 -16.1°
Reaches altitude 10° 17:24:00 10° 260° (W) 1,512 0.4 -16.4°
Maximum altitude 17:27:22 66° 343° (NNW) 466 -3.6 -17.0°
Enters shadow 17:28:15 44° 48° (NE) 598 -3.4 -17.1°
